KD4PYR Weather Reports


Display with metric or nautical units.
time (UTC)temp
F
wind
direction
speed
MPH
gust
MPH
rain 1hr
in
rain 24hr
in
rain mn
in
humidity
%
barometer
mb
20260503221903 60 181 5.0 13.0 0.00 0.00 0.00 44 1012.2
20260503220900 60 200 5.0 12.0 0.00 0.00 0.00 44 1012.3
20260503215835 60 174 4.0 8.0 0.00 0.00 0.00 46 1012.6
20260503214837 60 162 4.0 8.0 0.00 0.00 0.00 42 1012.7
20260503213827 59 192 5.0 12.0 0.00 0.00 0.00 43 1012.7
20260503212840 60 182 2.0 11.0 0.00 0.00 0.00 43 1012.6
20260503211831 60 182 5.0 12.0 0.00 0.00 0.00 43 1012.8
20260503210822 60 184 3.0 7.0 0.00 0.00 0.00 44 1012.9
20260503205827 60 171 7.0 14.0 0.00 0.00 0.00 43 1013.0
20260503204828 60 191 5.0 8.0 0.00 0.00 0.00 41 1013.0
20260503203818 60 150 5.0 14.0 0.00 0.00 0.00 41 1013.2
20260503202837 60 179 7.0 11.0 0.00 0.00 0.00 42 1013.2
20260503201829 61 146 3.0 12.0 0.00 0.00 0.00 45 1013.3
20260503200820 60 162 4.0 12.0 0.00 0.00 0.00 44 1013.5
20260503195852 60 159 4.0 10.0 0.00 0.00 0.00 44 1013.5
20260503194833 60 150 5.0 10.0 0.00 0.00 0.00 43 1013.7
20260503193825 59 189 7.0 11.0 0.00 0.00 0.00 43 1014.1
20260503192816 60 200 3.0 12.0 0.00 0.00 0.00 45 1014.5
20260503191834 60 196 3.0 12.0 0.00 0.00 0.00 44 1014.5
20260503190824 60 194 6.0 12.0 0.00 0.00 0.00 43 1014.7
20260503185828 60 251 2.0 9.0 0.00 0.00 0.00 44 1014.8
20260503184830 60 186 5.0 11.0 0.00 0.00 0.00 46 1014.8
20260503183820 59 221 6.0 11.0 0.00 0.00 0.00 43 1015.0
20260503182837 60 171 3.0 15.0 0.00 0.00 0.00 41 1015.2
20260503181834 59 176 3.0 11.0 0.00 0.00 0.00 48 1015.2
20260503180825 58 199 6.0 13.0 0.00 0.00 0.00 43 1015.4
20260503175831 59 190 6.0 12.0 0.00 0.00 0.00 41 1015.5
20260503174832 59 173 4.0 13.0 0.00 0.00 0.00 43 1015.5
20260503173827 58 169 3.0 9.0 0.00 0.00 0.00 45 1015.7
20260503172819 58 183 4.0 11.0 0.00 0.00 0.00 46 1016.0
20260503171837 58 155 2.0 7.0 0.00 0.00 0.00 47 1016.3
20260503170828 58 159 2.0 9.0 0.00 0.00 0.00 44 1016.3
20260503150824 52 179 3.0 9.0 0.00 0.00 0.00 60 1017.9
20260503130820 42 159 3.0 7.0 0.00 0.00 0.00 74 1017.7
20260503110816 35 153 1.0 5.0 0.00 0.00 0.00 81 1017.0
20260503080819 37 360 0.0 2.0 0.00 0.00 0.00 80 1016.3
20260503072834 37 360 0.0 1.0 0.00 0.00 0.00 81 1016.2
20260503071826 37 360 0.0 1.0 0.00 0.00 0.00 81 1016.2
20260503070817 36 360 0.0 1.0 0.00 0.00 0.00 80 1016.2
20260503054829 37 360 0.0 0.0 0.00 0.00 0.00 79 1016.5
20260503053824 37 360 0.0 1.0 0.00 0.00 0.00 79 1016.5
20260503052815 37 360 0.0 0.0 0.00 0.00 0.00 79 1016.5
20260503051836 37 360 0.0 1.0 0.00 0.00 0.00 79 1016.5
20260503050825 37 360 0.0 0.0 0.00 0.00 0.00 79 1016.5
20260503045855 37 360 0.0 0.0 0.00 0.00 0.00 79 1016.6
20260503044835 37 360 0.0 0.0 0.00 0.00 0.00 79 1016.5
20260503043827 37 360 0.0 0.0 0.00 0.00 0.00 79 1016.5
20260503042819 38 360 0.0 0.0 0.00 0.00 0.00 78 1016.6
20260503041837 38 360 0.0 0.0 0.00 0.00 0.00 78 1016.6
20260503040833 38 360 0.0 0.0 0.00 0.00 0.00 77 1016.6
20260503035835 38 360 0.0 0.0 0.00 0.00 0.00 77 1016.7
20260503034819 39 360 0.0 0.0 0.00 0.00 0.00 77 1016.8
20260503033839 39 360 0.0 0.0 0.00 0.00 0.00 76 1016.8
20260503032832 39 360 0.0 0.0 0.00 0.00 0.00 75 1016.7
20260503031827 40 360 0.0 0.0 0.00 0.00 0.00 74 1016.7
20260503030819 41 360 0.0 0.0 0.00 0.00 0.00 73 1016.7
20260503025820 41 360 0.0 0.0 0.00 0.00 0.00 71 1016.6
20260503024845 42 360 0.0 0.0 0.00 0.00 0.00 68 1016.6
20260503023840 43 360 0.0 1.0 0.00 0.00 0.00 62 1016.6
20260503022832 43 360 0.0 0.0 0.00 0.00 0.00 61 1016.5
20260503021826 44 360 0.0 1.0 0.00 0.00 0.00 60 1016.4
20260503020817 44 360 0.0 1.0 0.00 0.00 0.00 59 1016.3
20260503015820 44 360 0.0 2.0 0.00 0.00 0.00 59 1016.2
20260503014824 45 5 1.0 3.0 0.00 0.00 0.00 58 1016.1
20260503013816 45 336 1.0 6.0 0.00 0.00 0.00 56 1015.9
20260503012835 45 355 1.0 4.0 0.00 0.00 0.00 56 1015.7
20260503011828 46 334 2.0 6.0 0.00 0.00 0.00 55 1015.6
20260503010823 46 293 2.0 6.0 0.00 0.00 0.00 54 1015.5
20260503005828 47 329 3.0 6.0 0.00 0.00 0.00 53 1015.5
20260503004830 47 310 3.0 9.0 0.00 0.00 0.00 52 1015.4
20260503003822 47 25 3.0 9.0 0.00 0.00 0.00 51 1015.3
20260503002841 48 330 4.0 8.0 0.00 0.00 0.00 50 1015.2
20260503001838 48 333 3.0 8.0 0.00 0.00 0.00 49 1015.0
20260503000828 49 311 4.0 8.0 0.00 0.00 0.00 48 1015.0
20260502235831 49 360 4.0 9.0 0.00 0.00 0.00 47 1014.8
20260502234833 49 336 3.0 10.0 0.00 0.00 0.00 47 1014.8
20260502233825 50 300 5.0 9.0 0.00 0.00 0.00 47 1014.8
20260502232818 50 302 3.0 10.0 0.00 0.00 0.00 46 1014.7
20260502231858 51 312 5.0 12.0 0.00 0.00 0.00 45 1014.7
20260502230828 51 360 3.0 9.0 0.00 0.00 0.00 45 1014.6
20260502225833 51 269 5.0 13.0 0.00 0.00 0.00 44 1014.6
20260502224816 51 342 4.0 11.0 0.00 0.00 0.00 43 1014.5
20260502223835 51 315 5.0 11.0 0.00 0.00 0.00 43 1014.6
20260502222855 52 297 3.0 13.0 0.00 0.00 0.00 42 1014.5